Miscellaneous Local Product
Issued by NWS North Platte, NE

Home | Current Version | Previous Version | Text Only | Print | Product List | Glossary On
Versions: 1 2 3 4 5 6 7 8 9 10 11 12 13 14 15 16 17 18 19 20 21 22 23 24 25 26 27 28 29 30 31 32 33 34 35 36 37 38 39 40 41 42 43 44 45 46 47 48 49 50
000
AXUS43 KLBF 230910
MISLBF


WESTERN AND NORTH CENTRAL NEBRASKA HOURLY WEATHER ROUNDUP
NATIONAL WEATHER SERVICE NORTH PLATTE NE
400 AM CDT SAT AUG 23 2014

***STATIONS NOT REPORTING VARIABLES SUCH AS SKY/WEATHER OR
PRESSURE ARE PROVIDED BY THE NEBRASKA DEPARTMENT OF
ROADS...RAWS...AND APRS NETWORKS...AND ARE NOT UNDER
NATIONAL WEATHER SERVICE QUALITY CONTROL***

...OBSERVATIONS IN AND NEAR THE EASTERN PANHANDLE OF NEBRASKA...

CITY           SKY/WX    TMP DP  RH WIND       PRES   REMARKS
PINE RIDGE     LGT RAIN  62  61  96 E10       29.94F
CHADRON        LGT RAIN  65  62  90 CALM      29.94F
ALLIANCE       CLOUDY    62  60  93 NE7       29.95F
SIDNEY         CLOUDY    62  60  93 CALM      29.99S
WHITECLAY        N/A     62  59  91 E7          N/A
RUSHVILLE        N/A     61  59  94 E13         N/A
GORDON           N/A     64  64  99 NE7         N/A
CRESCENT LAKE    N/A     61  60  96 NE9         N/A
LISCO            N/A     67  63  87 W3          N/A
BIG SPRINGS      N/A     64  63  96 NE3         N/A
$$

...OBSERVATIONS IN NORTH CENTRAL NEBRASKA...

CITY           SKY/WX    TMP DP  RH WIND       PRES   REMARKS
VALENTINE      CLOUDY    66  65  96 E6        29.90F
THEDFORD       CLOUDY    67  66  97 NW3       29.90F
AINSWORTH      CLOUDY    67  66  97 CALM      29.90S
O`NEILL        LGT RAIN  68  67  96 CALM      29.87F
ORD            CLOUDY    67  66  97 SE5       29.83F
BROKEN BOW     CLOUDY    67 N/A N/A SE3       29.84F
SPRINGVIEW       N/A     68  67  96 CALM        N/A
ROSE             N/A     70  69  99 CALM        N/A
NEWPORT          N/A     68  68 100 CALM        N/A
SARGENT          N/A     67  66  97 CALM        N/A
COMSTOCK         N/A     73  71  96 S7          N/A
CHAMBERS         N/A     67  65  95 CALM        N/A
EWING            N/A     67  66  96 CALM        N/A
$$

...OBSERVATIONS IN SOUTHWEST NEBRASKA AND FAR NORTHEAST COLORADO...

CITY           SKY/WX    TMP DP  RH WIND       PRES   REMARKS
WRAY             N/A    N/A N/A N/A SW5       29.95F
IMPERIAL       MOCLDY    66  64  93 W5        29.92S
OGALLALA       CLOUDY    64  63  97 SW3       29.91F
NORTH PLATTE   CLOUDY    65  64  97 CALM      29.88R
MCCOOK         MOCLDY    67  65  93 E12       29.87F
LEXINGTON      CLOUDY    67  66  96 SE9       29.86F
PAXTON           N/A     66  64  94 CALM        N/A
SUTHERLAND       N/A     65  64  94 W6          N/A
BRADY            N/A     64  62  94 CALM        N/A
GOTHENBURG       N/A     66  62  88 SE3         N/A
CALLAWAY         N/A     65  64  98 SE3         N/A
$$

...SOME WEATHER OBSERVATIONS FROM AROUND THE REGION...

CITY           SKY/WX    TMP DP  RH WIND       PRES   REMARKS
DENVER         MOCLDY    60  57  89 E3        30.00F
LARAMIE        PTCLDY    50  49  96 SE3       30.07S
CHEYENNE       CLOUDY    57  56  96 S9        30.03F
SCOTTSBLUFF    CLOUDY    62  61  96 CALM      29.96S
RAPID CITY     CLOUDY    66  64  93 SE8       29.94S
PIERRE         LGT RAIN  69  69 100 E13       29.89F
WINNER         RAIN      69  66  90 E5        29.90F
SIOUX FALLS    HVY RAIN  72  68  87 SE8       29.94F FOG
OMAHA          LGT RAIN  72  68  87 NE9       29.96R
GRAND ISLAND   CLOUDY    68  65  90 E9        29.89F
KANSAS CITY    PTCLDY    78  71  79 S10       29.89F
WICHITA        PTCLDY    76  63  64 S10       29.89F
HAYS           PTCLDY    70  64  83 E5        29.87F
LIBERAL        PTCLDY    66  59  77 S6        29.94F
GOODLAND       CLOUDY    65  64  97 SW8       29.96R
$$



USA.gov is the U.S. government's official web portal to all federal, state and local government web resources and services.